Vorticity
6 6 6 6 5 3 2 2 5 6 6 6 9 8 6 6 7 8 9 9 9 8 6 6 7 7 8 11 15 8 -0 3 0 7 2 6 7 9 14 9 5 13 5 9 4
9 10 8 6 6 2 0 3 6 8 8 8 8 8 5 8 7 8 10 11 9 9 8 6 7 6 5 9 11 1 -0 4 1 1 3 9 8 8 7 10 13 7 10 5 1
7 8 8 5 2 3 1 2 7 7 9 10 7 6 8 2 8 10 10 10 10 11 9 9 10 10 12 12 7 11 1 2 3 4 5 13 14 15 9 6 9 2 -0 0 4
7 5 4 3 4 5 4 2 6 7 10 10 8 7 16 7 6 6 5 6 8 10 9 10 10 8 8 5 7 3 9 9 2 3 2 2 1 12 11 17 5 4 2 4 2
6 4 4 6 8 8 7 4 7 9 9 9 8 6 8 10 5 4 6 5 6 6 5 9 7 5 7 5 5 7 -2 3 4 6 7 1 13 21 9 6 3 0 3 5 7
7 7 9 9 9 9 8 8 9 8 10 9 9 7 4 0 4 6 5 8 7 7 7 7 6 3 3 3 9 8 16 17 17 8 4 2 9 12 9 7 3 2 -3 4 8
7 7 6 7 7 8 8 8 9 10 11 9 9 12 12 17 6 5 5 6 3 3 2 3 5 9 15 5 6 11 11 10 6 13 7 3 13 13 7 3 -1 -2 9 4 5
8 8 9 11 10 10 10 12 11 11 10 8 7 12 20 11 9 9 6 4 4 5 8 12 11 7 10 13 15 -13 3 -4 1 6 3 7 7 5 2 1 1 4 7 15 14
11 10 10 11 13 12 12 13 10 11 3 18 -1 3 7 7 14 12 8 9 12 10 12 6 8 13 12 0 -3 11 6 8 11 10 6 13 13 13 11 7 5 7 9 8 8
6 6 8 10 12 13 14 6 1 -4 -1 13 5 0 8 11 12 11 12 5 8 6 11 4 4 4 15 22 4 3 8 6 8 14 -0 4 20 6 1 -2 -1 1 2 2 4
5 5 6 10 10 11 8 8 11 12 21 24 9 3 5 5 6 6 9 3 11 13 1 -0 24 5 6 5 2 6 4 10 5 -6 -4 14 19 2 3 5 5 6 3 5 6
4 4 6 10 13 2 8 12 13 5 10 4 4 5 4 8 1 10 16 8 18 10 8 4 10 7 3 2 11 18 19 3 20 -8 1 8 9 12 9 8 10 11 9 11 10
4 4 6 10 13 13 4 10 7 3 -1 -2 3 13 4 -3 12 10 9 7 7 7 -3 11 7 4 0 13 13 14 1 5 2 7 26 28 14 7 8 9 8 5 6 -4 6
6 5 4 10 15 11 -5 -27 10 0 -2 4 8 -2 17 16 2 9 7 13 6 8 9 -4 8 -4 4 6 10 -2 5 6 20 25 5 6 17 -0 4 4 5 7 6 7 -4
6 4 4 8 13 13 10 10 7 7 -1 8 0 11 7 20 12 16 13 10 3 5 17 4 8 6 4 11 4 -8 8 26 23 24 8 15 -6 28 2 5 9 6 1 -2 1
6 4 6 5 9 7 9 7 6 4 8 6 7 1 11 5 10 6 15 10 6 -2 10 12 4 16 -5 14 5 3 19 15 7 6 14 14 -1 35 -2 13 -2 -5 -3 -1 1
6 6 7 6 6 6 4 3 0 20 4 6 7 5 4 5 8 12 -2 8 10 25 8 12 3 9 -10 20 5 -3 28 8 18 11 -4 2 32 4 6 -0 -6 2 4 -5 -0
6 7 8 8 5 4 4 5 12 13 11 7 5 3 5 11 2 6 12 10 5 9 5 -2 13 9 -5 14 12 3 6 22 12 7 -33 55 14 15 2 -3 -7 -5 -5 -1 12
7 8 8 8 4 5 5 10 14 4 9 7 2 3 7 8 6 8 14 10 3 5 27 0 14 5 -5 18 8 3 -0 16 16 31 22 12 10 -3 -1 -8 -11 -8 -6 4 8
7 8 8 6 3 5 6 17 14 9 7 6 6 5 8 8 6 12 14 -0 6 3 9 -9 20 7 -7 21 3 9 1 8 10 12 17 15 14 -9 -8 -4 -7 -7 8 15 -3
7 8 8 6 5 4 7 18 11 6 3 6 6 8 7 5 8 10 2 7 8 3 10 14 15 -3 6 1 9 6 5 -6 23 10 3 5 10 0 -4 -8 -1 16 7 -3 14
6 5 8 5 2 7 7 10 10 7 4 7 7 5 6 5 10 8 5 5 3 8 9 4 15 9 14 9 9 6 5 4 14 0 2 6 16 26 -25 5 27 -9 4 9 15
5 4 8 3 3 4 7 8 9 5 5 5 7 7 9 7 17 6 2 12 -2 11 8 7 -3 12 16 10 10 -0 -6 -7 20 23 10 9 -12 -27 2 17 4 -4 3 11 9
5 1 10 4 5 5 10 7 7 5 7 9 7 9 4 7 8 1 8 9 2 8 6 13 2 10 -5 -10 -4 5 3 15 7 26 -4 -12 4 -9 13 1 -0 4 7 17 6
3 6 9 24 3 7 6 9 5 6 10 10 9 5 7 10 7 13 5 5 8 12 4 11 11 10 6 5 12 18 6 15 1 14 14 -9 1 32 0 -5 4 9 14 12 7
3 2 5 -1 8 6 2 4 5 9 11 10 9 8 5 9 9 6 7 9 17 4 8 9 1 5 7 31 6 -6 31 11 -4 16 -6 8 8 0 -6 2 5 10 16 7 8
4 4 6 10 7 8 4 4 8 10 11 12 8 6 3 10 8 6 9 9 8 10 11 14 4 8 18 3 13 40 20 -10 14 2 4 4 22 -6 -0 2 5 15 11 6 9
Height
3155 3156 3157 3157 3157 3156 3156 3156 3155 3155 3154 3154 3154 3154 3154 3154 3153 3153 3153 3154 3154 3154 3154 3154 3155 3155 3156 3157 3157 3158 3160 3161 3163 3164 3165 3164 3164 3160 3160 3160 3160 3159 3159 3159 3159
3156 3157 3158 3159 3158 3158 3158 3158 3158 3157 3156 3156 3155 3155 3155 3155 3155 3155 3155 3155 3155 3155 3155 3155 3156 3156 3157 3158 3159 3160 3161 3163 3164 3165 3164 3164 3164 3162 3161 3159 3159 3158 3158 3157 3157
3158 3159 3160 3160 3160 3160 3160 3160 3159 3157 3157 3156 3156 3156 3156 3156 3158 3157 3157 3156 3156 3156 3156 3156 3157 3158 3158 3158 3159 3160 3162 3163 3164 3165 3164 3164 3163 3162 3162 3161 3160 3160 3159 3158 3156
3160 3160 3161 3160 3161 3161 3161 3160 3159 3158 3158 3158 3158 3157 3157 3158 3160 3158 3158 3157 3158 3158 3158 3159 3159 3160 3160 3160 3161 3162 3163 3164 3165 3164 3164 3164 3163 3163 3162 3161 3160 3160 3159 3158 3155
3161 3161 3161 3161 3161 3161 3161 3161 3160 3159 3159 3158 3158 3158 3158 3159 3160 3160 3160 3160 3160 3160 3160 3160 3161 3161 3161 3161 3161 3162 3163 3164 3164 3164 3164 3163 3163 3163 3163 3162 3161 3159 3157 3154 3151
3161 3161 3162 3161 3162 3161 3161 3161 3161 3160 3160 3160 3160 3160 3161 3163 3162 3162 3162 3161 3161 3161 3162 3162 3162 3162 3162 3162 3162 3162 3163 3163 3164 3164 3163 3164 3163 3162 3161 3159 3158 3155 3152 3148 3144
3162 3162 3162 3162 3162 3162 3162 3162 3161 3161 3161 3161 3162 3162 3162 3164 3163 3163 3164 3163 3163 3163 3163 3163 3163 3163 3162 3162 3163 3163 3164 3163 3165 3164 3164 3163 3162 3160 3159 3158 3157 3154 3150 3147 3144
3162 3163 3163 3163 3163 3162 3162 3162 3163 3163 3164 3164 3164 3164 3165 3164 3164 3164 3164 3164 3164 3164 3164 3163 3163 3163 3163 3163 3164 3165 3166 3165 3166 3165 3165 3165 3163 3161 3159 3157 3153 3149 3147 3145 3142
3164 3164 3164 3164 3163 3163 3163 3164 3165 3165 3166 3166 3167 3167 3167 3166 3164 3164 3165 3165 3165 3165 3165 3165 3165 3164 3164 3164 3165 3165 3165 3166 3166 3165 3164 3163 3161 3159 3157 3153 3150 3147 3145 3143 3140
3165 3165 3165 3165 3165 3165 3165 3166 3167 3168 3168 3168 3169 3172 3171 3169 3168 3167 3167 3167 3167 3167 3168 3167 3166 3165 3164 3164 3165 3165 3165 3165 3164 3164 3162 3161 3159 3156 3152 3149 3147 3145 3142 3139 3137
3166 3166 3167 3168 3167 3168 3168 3169 3173 3172 3170 3170 3172 3171 3172 3172 3171 3170 3170 3169 3169 3169 3169 3169 3169 3166 3166 3166 3165 3165 3165 3165 3164 3163 3160 3157 3154 3150 3148 3146 3143 3140 3137 3134 3132
3168 3168 3169 3170 3170 3171 3171 3171 3173 3176 3172 3173 3174 3175 3174 3174 3174 3173 3172 3173 3170 3170 3169 3170 3167 3168 3168 3167 3166 3164 3164 3164 3163 3160 3158 3151 3148 3147 3146 3143 3140 3138 3134 3131 3128
3169 3170 3171 3172 3172 3174 3174 3175 3176 3175 3175 3178 3178 3177 3177 3177 3175 3174 3173 3172 3171 3171 3170 3169 3171 3170 3170 3168 3166 3164 3163 3162 3161 3157 3152 3150 3148 3144 3144 3141 3138 3136 3133 3130 3125
3170 3172 3173 3173 3175 3175 3176 3176 3177 3177 3178 3182 3179 3179 3179 3177 3176 3175 3174 3175 3173 3173 3171 3171 3171 3170 3169 3167 3164 3164 3161 3157 3154 3153 3152 3149 3149 3144 3143 3141 3138 3136 3132 3128 3124
3171 3173 3174 3175 3176 3177 3179 3178 3178 3179 3180 3185 3182 3181 3179 3179 3179 3177 3176 3174 3174 3173 3174 3174 3172 3170 3168 3167 3164 3164 3159 3153 3150 3148 3148 3148 3150 3143 3143 3142 3138 3135 3132 3126 3121
3172 3174 3175 3176 3176 3178 3178 3179 3180 3181 3182 3184 3183 3182 3182 3179 3178 3177 3177 3177 3176 3174 3172 3172 3172 3170 3169 3166 3164 3162 3158 3153 3150 3150 3149 3148 3148 3145 3140 3138 3134 3132 3128 3122 3117
3172 3174 3175 3176 3178 3178 3178 3180 3181 3179 3184 3185 3183 3183 3182 3180 3180 3179 3179 3177 3175 3174 3173 3172 3171 3169 3168 3166 3163 3162 3156 3153 3154 3152 3149 3145 3142 3138 3137 3136 3133 3128 3124 3119 3113
3171 3174 3175 3176 3177 3178 3179 3181 3180 3181 3182 3183 3183 3183 3182 3181 3180 3179 3179 3177 3176 3175 3174 3172 3171 3171 3170 3168 3165 3162 3161 3163 3165 3158 3148 3143 3141 3141 3140 3136 3131 3126 3121 3114 3108
3171 3173 3175 3176 3178 3179 3181 3180 3180 3181 3183 3183 3183 3183 3183 3181 3181 3180 3180 3178 3177 3176 3176 3174 3173 3173 3171 3168 3168 3163 3163 3164 3161 3156 3150 3142 3142 3141 3137 3134 3129 3124 3119 3112 3104
3170 3173 3175 3176 3178 3180 3181 3180 3181 3182 3182 3183 3183 3184 3183 3182 3182 3180 3179 3180 3177 3176 3174 3174 3173 3172 3171 3169 3167 3166 3165 3163 3163 3160 3155 3141 3140 3139 3136 3132 3128 3122 3115 3108 3100
3169 3172 3174 3176 3178 3180 3180 3180 3181 3182 3183 3184 3183 3183 3183 3182 3181 3180 3180 3180 3178 3176 3175 3173 3173 3173 3170 3167 3165 3165 3163 3164 3164 3163 3160 3151 3139 3135 3133 3131 3124 3119 3112 3105 3098
3168 3172 3174 3176 3179 3178 3179 3180 3182 3182 3183 3183 3183 3182 3182 3181 3180 3180 3180 3179 3178 3176 3174 3173 3171 3170 3169 3166 3165 3163 3160 3159 3159 3160 3156 3151 3139 3136 3134 3128 3122 3115 3110 3102 3090
3166 3170 3173 3175 3177 3178 3179 3180 3181 3182 3183 3183 3182 3182 3181 3181 3181 3179 3179 3178 3176 3175 3173 3172 3168 3168 3167 3168 3164 3161 3158 3156 3154 3152 3149 3148 3137 3135 3132 3125 3120 3112 3104 3094 3086
3165 3168 3171 3174 3176 3177 3178 3179 3180 3181 3182 3182 3182 3181 3181 3180 3179 3178 3177 3176 3175 3173 3172 3170 3167 3167 3168 3165 3162 3159 3156 3152 3151 3149 3145 3142 3135 3134 3126 3120 3113 3104 3097 3089 3081
3162 3165 3168 3171 3174 3176 3177 3179 3179 3180 3181 3181 3181 3180 3180 3179 3178 3177 3176 3175 3173 3171 3170 3169 3167 3165 3162 3160 3157 3154 3151 3148 3147 3147 3143 3138 3133 3128 3122 3115 3108 3100 3091 3082 3074
3160 3164 3167 3170 3172 3175 3175 3177 3178 3179 3180 3180 3180 3179 3179 3177 3177 3175 3174 3174 3172 3169 3167 3165 3164 3162 3161 3155 3153 3151 3146 3144 3143 3140 3137 3135 3128 3124 3118 3112 3104 3093 3083 3075 3067
3158 3162 3166 3168 3170 3173 3175 3175 3176 3177 3178 3178 3178 3178 3177 3176 3175 3173 3173 3172 3170 3168 3165 3164 3162 3158 3154 3152 3149 3145 3142 3140 3138 3136 3133 3127 3124 3119 3112 3105 3096 3088 3079 3071 3062